Weather History for Tyler, TX

Change the Weather History Date:

Monday, February 25, 2013

  Actual Average Record
Temperature  
Mean Temperature 54 °F 53 °F  
Max Temperature 66 °F 63 °F 89 °F (1918)
Min Temperature 42 °F 43 °F 18 °F (1960)
Degree Days  
Heating Degree Days 11 13  
Month to date heating degree days 290 377  
Since 1 July heating degree days 1504 1855  
Cooling Degree Days 0 0  
Month to date cooling degree days 0 0  
Year to date cooling degree days 10 4  
Growing Degree Days 3 (Base 50)    
Moisture  
Dew Point 39 °F    
Average Humidity 54    
Maximum Humidity 83    
Minimum Humidity 25    
Precipitation  
Precipitation 0.01 in 0.15 in 1.97 in (2006)
Month to date precipitation 1.70 3.36  
Year to date precipitation 5.44 6.42  
Snow  
Snow 0.00 in - - ()
Month to date snowfall 0.0  
Since 1 July snowfall 1.0  
Snow Depth 0.00 in    
Sea Level Pressure  
Sea Level Pressure 29.56 in    
Wind  
Wind Speed 14 mph (SSW)    
Max Wind Speed 31 mph    
Max Gust Speed 43 mph    
Visibility 9 miles    
Events Rain    
T = Trace of Precipitation, MM = Missing Value Source: NWS Daily Summary

Daily Weather History Graph

Daily Weather History Graph

Search for Another Location

Airport:

Trip Planner

Search our weather history database for the weather conditions in past years. The results will help you decide how hot, cold, wet, or windy it might be!

Date:

Astronomy

Feb. 25, 2013 Rise Set
Actual Time 6:53 AM CST 6:16 PM CST
Civil Twilight 6:28 AM CST 6:40 PM CST
Nautical Twilight 6:00 AM CST 7:09 PM CST
Astronomical Twilight 5:31 AM CST 7:37 PM CST
Moon 6:26 PM CST (2/25) 6:26 AM CST (2/25)
Length of Visible Light 12h 12m
Length of Day
11h 22m
Full, 100% of the Moon is Illuminated
Feb 25
Full
Feb 25
Full
Mar 4
Last Quarter
Mar 11
New
Mar 19
First Quarter

Hourly Weather History & Observations

Time (CST) Temp. Windchill Dew Point Humidity Pressure Visibility Wind Dir Wind Speed Gust Speed Precip Events Conditions
12:53 AM 57.0 °F - 39.0 °F 51% 29.67 in 10.0 mi ESE 15.0 mph - N/A   Mostly Cloudy
1:53 AM 55.0 °F - 39.0 °F 55% 29.63 in 10.0 mi ESE 11.5 mph - N/A   Partly Cloudy
2:53 AM 55.9 °F - 39.9 °F 55% 29.61 in 10.0 mi East 6.9 mph - N/A   Overcast
3:24 AM 55.4 °F - 41.0 °F 58% 29.61 in 10.0 mi ENE 5.8 mph - N/A   Overcast
3:53 AM 55.0 °F - 41.0 °F 59% 29.62 in 10.0 mi North 3.5 mph - N/A   Overcast
4:53 AM 54.0 °F - 42.1 °F 64% 29.64 in 10.0 mi NNW 4.6 mph - N/A   Overcast
5:53 AM 54.0 °F - 43.0 °F 66% 29.64 in 10.0 mi NE 5.8 mph - 0.00 in   Overcast
6:53 AM 54.0 °F - 44.1 °F 69% 29.60 in 10.0 mi East 11.5 mph - 0.00 in   Overcast
7:19 AM 53.6 °F - 46.4 °F 77% 29.61 in 10.0 mi East 12.7 mph - N/A   Overcast
7:38 AM 53.6 °F - 46.4 °F 77% 29.60 in 10.0 mi East 10.4 mph - N/A   Overcast
7:48 AM 53.6 °F - 46.4 °F 77% 29.60 in 10.0 mi East 10.4 mph - N/A   Overcast
7:53 AM 54.0 °F - 46.9 °F 77% 29.59 in 10.0 mi East 8.1 mph - N/A   Overcast
8:06 AM 53.6 °F - 48.2 °F 82% 29.60 in 10.0 mi ESE 9.2 mph - N/A   Overcast
8:53 AM 55.9 °F - 50.0 °F 80% 29.57 in 10.0 mi ESE 13.8 mph - N/A   Overcast
9:53 AM 55.0 °F - 52.0 °F 89% 29.57 in 6.0 mi SSE 8.1 mph - 0.01 in Rain Light Rain
10:13 AM 55.4 °F - 53.6 °F 94% 29.56 in 10.0 mi SSE 8.1 mph - 0.00 in   Overcast
10:25 AM 55.4 °F - 53.6 °F 94% 29.56 in 10.0 mi SSE 6.9 mph - 0.00 in   Overcast
10:53 AM 57.9 °F - 54.0 °F 87% 29.54 in 10.0 mi South 9.2 mph - 0.00 in   Overcast
11:39 AM 64.4 °F - 55.4 °F 73% 29.53 in 10.0 mi SW 11.5 mph - N/A   Mostly Cloudy
11:53 AM 64.0 °F - 54.0 °F 70% 29.51 in 10.0 mi SSW 12.7 mph - N/A   Mostly Cloudy
12:53 PM 63.0 °F - 37.9 °F 40% 29.51 in 8.0 mi West 17.3 mph 26.5 mph N/A   Mostly Cloudy
1:49 PM 64.4 °F - 37.4 °F 37% 29.49 in 9.0 mi West 19.6 mph 28.8 mph N/A   Scattered Clouds
1:53 PM 63.0 °F - 36.0 °F 37% 29.47 in 8.0 mi WSW 20.7 mph 28.8 mph N/A   Partly Cloudy
2:53 PM 63.0 °F - 28.0 °F 27% 29.47 in 7.0 mi West 18.4 mph 31.1 mph N/A   Scattered Clouds
3:11 PM 62.6 °F - 28.4 °F 27% 29.48 in 1.8 mi WSW 24.2 mph 38.0 mph N/A   Haze
3:18 PM 62.6 °F - 26.6 °F 26% 29.48 in 10.0 mi WSW 23.0 mph 39.1 mph N/A   Scattered Clouds
3:53 PM 62.1 °F - 27.0 °F 26% 29.46 in 6.0 mi WSW 26.5 mph 35.7 mph N/A   Haze
4:53 PM 57.9 °F - 30.0 °F 35% 29.48 in 3.0 mi WSW 21.9 mph 35.7 mph N/A   Haze
5:53 PM 53.1 °F - 27.0 °F 37% 29.51 in 10.0 mi WSW 19.6 mph 29.9 mph N/A   Mostly Cloudy
6:10 PM 51.8 °F - 26.6 °F 38% 29.53 in 5.0 mi WSW 23.0 mph 34.5 mph N/A   Haze
6:53 PM 48.9 °F - 27.0 °F 43% 29.52 in 10.0 mi WSW 18.4 mph 24.2 mph N/A   Scattered Clouds
7:53 PM 48.0 °F - 28.9 °F 48% 29.54 in 10.0 mi West 21.9 mph 29.9 mph N/A   Overcast
8:49 PM 44.6 °F 37.4 °F 33.8 °F 66% 29.58 in 10.0 mi West 16.1 mph 33.4 mph N/A   Overcast
8:53 PM 44.1 °F 37.4 °F 34.0 °F 68% 29.57 in 10.0 mi WSW 13.8 mph 33.4 mph N/A   Overcast
9:53 PM 43.0 °F 34.5 °F 32.0 °F 65% 29.60 in 10.0 mi West 19.6 mph 28.8 mph N/A   Overcast
10:53 PM 42.1 °F 33.9 °F 30.9 °F 65% 29.61 in 8.0 mi West 17.3 mph 29.9 mph N/A   Overcast
11:53 PM 43.0 °F 34.8 °F 30.9 °F 62% 29.61 in 10.0 mi West 18.4 mph 24.2 mph N/A   Overcast